Lapse_Rate
4.3 4.5 4.7 4.8 5.2 5.2 5.0 5.0 5.0 5.1 5.3 5.0 4.9 5.2 5.2 5.3 5.4 5.4 5.4 5.1 4.9 4.8 5.0 4.8 5.3 5.4 5.2 5.1 5.1 5.1 4.9 5.6 5.0 5.0 4.6 4.3 3.7 4.0 3.7 4.1 4.3 3.4 3.3 3.0 1.8 1.1 2.5 4.3 3.5 3.0 3.3 3.4 2.6 2.5
4.6 4.3 4.2 4.2 4.3 4.6 4.7 4.8 4.5 4.6 4.9 4.7 4.5 4.2 4.7 4.9 4.8 5.0 5.4 5.0 4.8 4.5 4.7 4.8 4.9 5.1 5.0 5.0 4.9 5.2 4.8 4.9 4.4 4.5 4.6 4.2 3.8 3.7 4.1 3.9 4.5 3.7 3.9 3.5 3.5 4.5 4.5 3.9 3.8 3.3 3.3 3.5 3.2 2.6
4.4 4.1 3.7 3.9 4.1 4.0 4.2 4.4 4.5 4.4 4.3 4.3 4.3 3.7 4.2 4.5 4.8 4.9 5.4 4.8 4.5 4.4 4.2 4.3 4.9 4.9 5.0 4.9 5.0 4.9 4.9 4.7 4.8 4.8 4.6 4.4 4.1 3.9 3.9 4.7 4.6 4.1 3.9 3.5 3.6 4.6 4.1 3.9 4.1 3.6 3.5 3.6 3.5 3.0
4.6 4.4 3.8 3.6 3.8 3.9 4.4 4.0 4.1 4.1 4.3 4.3 4.1 4.0 4.4 4.5 4.5 4.7 5.0 4.8 4.5 4.6 4.1 4.3 4.6 4.9 5.0 4.9 5.0 4.9 4.7 4.7 4.8 4.6 4.4 4.8 5.0 4.2 4.2 4.8 5.3 5.0 4.6 4.5 4.6 4.7 4.1 3.9 3.9 3.8 3.7 3.8 3.6 3.5
5.0 5.0 4.5 4.0 3.3 4.0 3.8 4.6 4.1 4.1 4.6 4.7 4.6 4.6 4.5 4.8 5.0 5.1 4.8 4.6 4.4 4.7 4.4 4.3 4.8 4.9 4.7 4.7 4.9 4.8 4.7 4.8 4.7 4.5 4.6 4.8 5.2 5.1 4.5 4.7 6.6 5.7 5.3 4.8 4.7 4.5 4.0 3.8 3.7 4.0 3.9 4.0 3.6 3.5
4.6 4.6 4.9 5.0 4.5 4.4 4.6 4.6 4.9 5.2 5.3 5.3 5.3 5.2 5.1 5.0 4.8 5.0 4.7 4.4 4.5 4.8 4.3 4.0 4.7 4.6 4.3 4.5 4.9 5.1 4.8 4.9 4.9 4.6 4.4 4.5 5.3 5.0 4.2 5.1 6.7 6.0 5.5 5.2 4.8 4.4 4.2 3.9 3.8 4.0 4.0 3.9 3.7 3.5
4.0 4.3 4.4 4.8 4.6 4.4 4.6 4.8 4.8 5.2 5.4 5.3 5.5 5.7 5.6 5.4 5.1 5.0 4.5 4.3 4.9 4.7 3.9 3.8 3.9 3.6 4.2 4.5 4.7 4.8 4.8 4.8 4.8 4.4 4.2 4.8 4.8 4.8 4.9 6.2 6.5 5.7 5.5 5.1 4.7 4.5 4.5 4.0 3.8 4.1 4.0 3.9 3.7 3.6
3.7 3.8 3.9 4.3 4.5 4.3 4.2 4.2 4.5 5.3 5.3 5.2 5.0 5.1 5.0 4.7 4.8 4.6 4.8 4.8 4.7 5.1 4.7 3.9 3.8 3.3 3.3 3.9 4.5 4.6 4.6 4.7 4.7 4.0 4.4 4.7 3.8 4.9 6.0 6.4 6.3 5.8 5.4 5.0 4.6 4.4 4.4 4.1 4.0 4.1 3.9 3.9 3.8 3.7
3.5 3.6 4.0 4.3 4.2 4.3 3.7 3.5 3.8 4.4 5.3 5.4 5.0 4.9 4.8 4.6 4.5 4.4 4.5 4.7 4.6 4.5 4.3 4.3 4.1 3.5 3.5 3.6 4.2 4.6 4.6 4.4 4.2 3.7 4.3 4.2 3.7 5.7 7.2 6.1 6.2 5.7 5.4 4.7 4.3 4.2 4.2 4.0 3.9 4.1 3.9 3.9 3.9 3.7
3.9 3.9 4.0 4.1 4.2 4.0 3.5 3.3 3.6 3.7 4.3 5.3 5.1 5.0 4.6 4.8 4.7 4.5 4.3 4.2 3.8 3.6 3.9 4.2 3.9 3.6 3.6 3.8 4.2 4.4 4.1 3.9 3.9 4.0 3.9 3.7 4.8 7.1 6.7 6.3 6.2 5.9 5.4 4.7 4.2 4.3 4.2 4.1 4.0 4.1 4.0 4.0 3.9 3.8
4.1 4.0 4.0 4.0 3.9 3.9 3.3 3.3 3.5 3.5 3.8 3.6 4.9 4.6 4.7 4.5 4.2 4.0 3.8 3.5 3.5 3.6 3.8 3.7 3.4 3.3 3.4 4.0 4.3 4.1 4.0 3.9 4.0 4.0 3.5 3.5 5.4 7.2 6.8 6.5 6.1 5.7 5.2 4.7 4.3 4.3 4.1 4.0 4.0 4.1 4.2 4.0 3.8 3.9
4.1 3.9 3.8 4.0 4.2 4.4 3.7 3.4 3.8 4.0 4.1 4.2 4.1 4.6 4.8 4.3 3.9 3.8 3.7 3.9 3.8 3.9 3.7 3.8 3.4 3.0 3.4 3.9 4.0 3.8 3.7 3.7 4.3 3.4 3.1 3.7 6.3 7.0 6.6 6.3 5.9 5.5 4.9 4.3 4.2 4.1 3.9 4.0 4.0 4.2 4.3 4.0 3.9 3.9
3.8 3.8 3.8 4.1 4.5 5.0 5.0 4.8 4.9 4.5 4.9 4.8 4.8 5.0 4.9 5.0 4.1 3.9 4.3 4.1 4.2 4.6 4.5 4.4 3.9 3.6 4.5 3.9 3.7 3.6 3.8 3.8 3.7 3.9 4.0 5.7 6.6 6.9 6.6 6.0 5.7 5.4 4.4 4.1 4.0 4.0 3.9 3.9 4.1 4.3 4.2 4.0 3.8 3.7
3.6 4.0 4.2 4.6 5.2 5.6 5.4 5.2 5.5 5.7 5.6 5.2 5.6 5.6 5.7 5.4 4.9 4.9 5.1 5.5 5.8 5.9 5.8 5.0 4.9 4.5 4.2 4.1 3.8 4.1 4.1 4.1 4.0 3.9 5.5 6.9 6.9 6.7 6.2 5.7 5.3 4.6 4.1 4.2 4.1 4.1 4.1 4.1 4.3 4.3 4.2 4.0 3.9 3.7
4.3 4.5 4.8 5.2 5.5 5.4 5.4 5.0 5.2 4.9 5.0 5.5 6.0 6.1 6.0 6.0 5.9 6.1 5.8 5.5 5.3 5.5 5.3 5.2 4.7 4.6 4.5 4.2 4.3 4.4 4.3 4.5 4.7 5.6 6.9 6.5 6.2 6.3 6.2 5.5 5.0 4.4 4.3 4.3 4.1 4.0 3.9 4.1 4.2 4.2 4.1 4.0 4.0 3.7
5.0 4.8 4.9 5.5 5.7 5.2 5.3 4.9 5.2 5.4 5.8 6.0 6.1 6.4 6.3 6.6 6.2 6.2 6.1 5.8 5.5 5.1 5.2 5.0 4.7 4.3 4.2 4.5 4.3 4.5 4.5 5.3 6.2 6.6 6.1 5.9 5.7 6.0 5.6 5.1 4.8 4.3 4.2 4.1 3.9 3.9 4.0 4.1 4.1 4.1 3.9 3.9 3.8 3.5
5.5 5.3 5.6 5.6 5.6 5.2 5.3 5.2 5.4 5.4 5.6 6.1 6.1 6.2 6.4 6.7 6.5 6.0 6.3 6.0 5.3 5.4 5.2 4.9 4.4 4.7 4.6 4.5 4.6 4.9 5.6 6.4 6.3 6.1 5.7 5.6 5.3 5.5 5.3 5.0 4.5 4.1 4.0 3.8 3.8 3.9 4.1 4.1 4.1 4.0 4.0 3.8 3.7 3.4
5.8 5.8 5.7 5.5 5.3 5.6 5.4 5.4 5.7 5.8 5.6 5.7 5.8 6.1 6.5 6.9 6.7 6.4 6.1 6.2 5.7 5.4 5.3 4.9 4.8 4.6 4.8 5.1 5.7 6.4 6.2 5.9 5.7 5.5 5.3 5.1 5.1 5.1 4.8 4.4 4.1 4.0 3.9 3.6 3.7 3.9 4.1 4.1 4.0 3.8 3.8 3.6 3.5 3.2
6.1 6.1 5.8 5.7 5.5 5.6 5.6 5.6 5.9 5.9 5.8 5.9 6.0 6.2 6.7 7.1 7.1 6.7 6.5 6.3 6.0 5.9 5.4 4.9 4.7 5.0 5.2 5.6 6.0 5.8 5.5 5.7 5.7 5.4 5.1 5.0 4.7 4.5 4.3 4.1 3.9 3.8 3.7 3.7 3.9 4.1 4.0 3.9 3.9 3.8 3.7 3.4 3.2 3.0
6.4 6.0 5.9 6.0 5.7 5.7 6.0 5.6 6.0 6.0 6.1 6.2 6.3 6.5 7.0 7.4 7.3 6.8 6.3 6.1 5.9 5.4 5.0 4.7 5.4 5.4 5.5 5.6 5.4 5.4 5.3 5.3 5.1 4.8 4.5 4.5 4.5 4.1 3.9 3.8 3.8 3.9 3.9 3.9 4.1 4.1 4.1 4.0 3.8 3.8 3.7 3.3 3.0 3.0
6.4 6.1 6.6 6.2 6.0 5.9 6.2 5.8 5.9 6.1 6.2 6.1 6.5 7.1 7.4 7.6 7.0 6.4 6.2 6.1 6.0 5.7 5.9 5.9 5.8 5.6 5.3 5.3 5.3 5.2 5.3 5.2 5.0 4.7 4.6 4.6 4.4 4.0 3.9 3.9 3.9 3.8 3.8 3.9 3.9 4.1 4.1 3.8 3.8 3.7 3.5 3.2 3.0 3.0
6.6 6.5 6.5 6.4 6.3 6.1 6.0 6.2 6.3 6.2 6.5 6.6 7.1 7.2 7.1 7.0 6.7 6.5 6.4 5.9 5.9 6.1 5.9 5.6 5.8 6.1 5.9 5.5 5.2 5.1 4.9 4.9 4.7 4.4 4.3 4.0 4.0 3.9 4.0 3.9 3.9 3.9 4.0 4.1 4.1 4.1 3.9 3.9 3.9 3.7 3.3 3.3 3.3 3.3
7.0 7.4 6.8 6.4 6.3 6.2 6.3 6.5 6.4 6.4 6.5 6.6 7.1 7.1 6.9 6.6 6.6 6.4 6.2 6.3 6.2 5.9 5.6 5.7 5.8 5.6 5.5 5.3 5.2 4.9 4.8 4.7 4.6 4.4 4.2 4.2 3.5 3.7 3.9 4.0 3.9 4.0 4.2 4.3 4.3 4.0 4.0 4.0 3.8 3.6 3.4 3.5 3.6 3.7
7.1 7.0 6.6 6.7 6.6 7.0 6.5 6.6 6.8 6.8 6.8 6.8 7.2 7.2 6.9 6.9 6.6 6.6 6.5 6.3 6.1 5.9 5.6 5.4 5.5 5.6 5.2 5.2 5.2 5.1 4.8 4.8 4.3 4.0 4.1 3.5 3.5 3.8 3.8 3.8 3.8 4.0 4.4 4.4 4.3 4.1 4.0 3.8 3.6 3.5 3.6 3.7 3.8 4.0
7.1 7.0 6.9 7.0 6.7 6.7 6.6 6.7 7.0 7.3 7.1 7.2 7.1 6.9 7.2 6.8 6.3 6.4 6.6 6.6 6.1 5.5 5.2 5.2 5.2 4.8 4.8 4.7 4.4 4.4 4.7 4.5 4.2 4.3 3.9 3.0 3.4 3.6 3.8 4.0 4.2 4.3 4.5 4.5 4.3 4.2 4.0 3.9 3.8 3.7 3.8 4.0 4.1 4.2
7.1 7.1 6.7 6.6 6.7 7.1 7.3 7.6 7.8 7.6 7.4 7.2 6.9 6.6 6.5 6.2 6.1 6.3 6.9 6.9 6.2 5.8 5.5 5.3 4.9 4.6 4.6 4.5 4.4 4.4 4.6 4.5 4.3 3.7 3.1 2.9 3.1 3.2 3.9 4.2 4.2 4.4 4.4 4.4 4.3 4.1 4.0 4.0 4.0 4.0 4.1 4.3 4.3 4.3
7.1 6.7 7.1 7.5 7.8 7.9 7.6 7.4 7.4 7.3 7.3 6.9 6.7 6.6 6.4 6.3 6.5 6.7 7.1 6.8 6.4 5.7 5.3 5.2 5.1 4.8 4.6 4.6 4.3 4.2 3.9 3.9 3.8 3.8 2.9 2.8 3.3 3.7 4.4 4.6 4.4 4.3 4.3 4.4 4.3 4.2 4.2 4.1 4.1 4.2 4.4 4.5 4.4 4.4
7.5 7.7 7.6 7.6 7.4 7.4 7.3 7.2 7.0 7.0 7.0 6.9 6.8 6.8 6.9 6.9 6.9 6.9 6.7 6.7 6.4 6.1 5.4 5.2 5.1 5.0 4.8 4.9 4.7 4.0 3.9 3.7 3.6 3.6 3.4 3.6 3.8 4.4 4.6 4.5 4.4 4.2 4.3 4.4 4.3 4.3 4.3 4.3 4.3 4.4 4.6 4.6 4.6 4.6
7.4 7.5 7.3 7.3 7.3 7.2 7.0 6.7 6.6 6.6 6.7 6.7 6.8 6.8 6.8 7.0 6.8 6.5 6.3 6.3 6.3 6.1 5.8 5.4 5.2 5.1 4.8 4.7 4.7 4.2 3.6 3.8 3.8 4.3 4.5 4.4 4.4 4.7 4.5 4.4 4.3 4.2 4.3 4.4 4.4 4.4 4.4 4.5 4.5 4.7 4.7 4.7 4.7 4.7
6.8 7.0 7.1 7.1 7.1 7.0 6.9 7.0 7.1 7.0 6.8 6.7 6.7 6.6 6.4 6.3 6.2 6.0 5.9 5.8 6.1 6.1 5.8 5.4 5.0 4.9 4.6 4.6 4.5 4.5 4.5 4.1 4.1 4.2 4.2 4.2 4.1 4.0 4.2 4.2 4.2 4.4 4.5 4.5 4.6 4.6 4.5 4.6 4.8 4.8 4.7 4.7 4.7 4.8
6.7 6.8 6.8 6.7 6.5 6.7 6.7 6.7 6.6 6.5 6.4 6.3 6.1 5.9 5.7 5.4 5.3 5.2 5.2 5.3 5.3 5.3 5.3 5.0 4.7 4.9 4.7 4.5 4.5 4.4 4.4 4.4 4.3 4.3 4.2 3.8 3.9 4.0 4.1 4.2 4.4 4.6 4.7 4.8 4.9 4.7 4.8 4.8 4.9 4.8 4.7 4.7 4.8 4.9
6.8 6.5 6.4 6.5 6.6 6.5 6.4 6.5 6.2 5.9 5.8 5.7 5.7 5.5 5.1 4.7 4.4 4.5 4.5 4.4 4.3 4.2 4.6 4.7 4.9 5.0 4.9 4.8 4.6 4.4 4.5 4.5 4.6 4.6 4.5 4.3 4.3 4.2 4.3 4.6 4.9 5.0 5.1 5.1 5.0 5.0 5.0 4.9 4.9 4.9 4.8 4.8 4.8 4.9
5.9 6.1 6.1 6.2 6.2 6.2 6.1 6.0 5.8 5.5 5.4 5.3 4.9 4.6 4.5 4.5 4.3 4.3 4.1 3.9 4.0 4.4 4.3 4.3 4.5 4.6 4.6 4.5 4.5 4.6 4.6 4.4 4.2 4.1 4.2 4.3 4.4 4.6 4.9 5.1 5.3 5.4 5.4 5.3 5.3 5.3 5.2 5.1 5.1 5.0 5.0 5.0 4.9 4.9
Wind_Speed
11 16 15 17 21 30 33 33 33 34 32 31 29 28 26 23 20 9 2 4 3 2 1 2 3 5 2 2 4 4 3 1 1 1 2 2 2 3 2 5 5 7 6 4 3 3 9 4 3 4 5 6 5 5
13 12 12 15 20 18 15 31 35 34 34 33 32 31 29 26 25 14 2 5 3 3 0 3 4 4 2 2 4 3 1 3 4 2 1 2 2 2 2 4 2 3 6 3 7 5 2 6 7 5 4 5 4 3
13 14 14 12 15 16 12 18 16 33 36 36 36 35 32 29 29 22 4 5 3 3 1 0 2 2 2 4 3 3 2 3 2 2 2 1 4 3 4 6 2 4 4 3 3 3 5 4 4 1 3 5 8 2
13 14 15 16 13 12 15 15 14 14 34 37 40 40 38 35 33 21 4 8 3 3 2 2 2 3 2 1 4 3 4 4 4 1 2 2 2 2 3 2 4 4 6 6 6 12 12 4 1 4 7 6 8 12
16 15 16 17 18 16 13 16 17 12 14 35 38 39 41 39 34 16 5 10 5 4 3 2 2 2 1 3 5 5 5 4 2 2 2 3 1 1 2 2 5 7 8 6 7 3 3 1 3 5 4 4 6 5
21 18 16 17 19 18 18 16 16 15 15 15 35 38 39 37 32 5 2 6 15 4 3 2 2 2 2 5 6 5 4 1 1 3 3 1 1 2 2 4 7 12 5 5 4 4 1 4 5 3 3 5 7 6
23 22 19 17 18 19 18 19 18 16 14 23 25 36 38 43 23 4 4 2 26 8 3 1 2 2 5 4 2 1 1 1 1 2 2 3 2 4 3 5 5 9 10 5 4 5 3 4 3 5 4 6 9 7
24 24 23 20 18 18 19 19 19 18 14 17 13 32 33 26 8 1 7 16 5 5 2 3 2 3 5 3 3 1 2 1 2 2 1 3 2 2 6 12 3 2 3 2 7 6 4 2 2 4 3 4 8 8
26 25 23 23 20 17 17 19 19 17 20 2 36 39 11 1 2 2 11 5 11 2 4 4 7 5 4 2 3 0 1 3 1 2 2 4 4 8 12 8 9 9 7 5 5 2 2 0 4 6 4 6 4 7
26 25 24 23 21 17 15 17 18 17 34 39 11 3 3 3 32 17 3 3 1 3 2 2 3 3 4 3 3 4 3 2 2 4 2 4 5 14 15 9 6 9 9 9 6 1 2 4 4 3 4 4 4 6
28 25 25 22 21 19 16 14 18 27 22 2 3 3 3 21 1 2 4 4 4 4 4 3 3 5 3 4 4 4 3 3 2 3 4 3 5 5 6 15 8 7 10 7 5 4 5 4 4 3 5 4 4 6
28 27 25 23 21 20 17 15 13 8 2 9 9 6 3 1 2 3 6 5 6 7 5 6 3 3 3 2 3 3 4 1 5 4 1 4 5 4 5 4 9 9 9 8 4 6 4 4 5 4 4 4 5 6
29 27 26 23 22 21 18 19 19 35 25 4 3 4 4 3 5 6 9 5 6 7 7 6 5 4 3 2 3 3 5 5 4 3 5 7 2 4 6 6 4 4 7 7 4 3 4 2 2 4 4 4 6 6
30 27 26 23 22 22 20 21 29 24 4 3 6 7 6 5 6 7 4 2 2 5 12 10 5 4 3 4 3 5 2 3 4 5 8 3 8 8 7 6 9 8 8 8 8 7 6 6 4 5 5 4 5 5
29 27 25 23 21 24 21 18 38 3 3 4 5 7 9 5 3 2 3 3 2 10 13 6 4 3 3 4 3 5 4 6 8 6 4 2 8 11 11 10 9 10 8 6 5 5 5 5 4 3 3 2 3 5
28 24 16 21 22 23 20 11 16 1 2 4 5 3 1 4 3 3 4 5 7 10 3 2 4 5 5 5 6 10 9 10 5 4 2 6 11 12 12 10 10 10 10 8 7 6 5 6 4 3 1 3 4 3
27 7 17 20 22 23 18 4 2 5 5 5 3 1 4 2 2 5 4 5 11 10 5 4 9 7 5 4 6 7 7 3 3 3 4 8 14 14 12 11 10 9 8 8 7 7 7 5 4 1 2 2 1 3
9 8 15 20 20 5 2 2 4 5 6 3 3 3 3 1 4 3 4 10 8 5 4 5 4 5 7 7 5 4 6 2 1 4 6 10 12 13 12 12 10 9 8 7 6 6 5 6 4 3 3 1 2 4
10 9 19 21 8 4 4 3 2 4 0 2 1 1 1 1 1 3 4 12 1 0 5 3 4 5 5 4 4 3 4 4 4 3 4 8 12 13 12 10 9 7 8 7 6 4 4 5 3 3 2 1 2 2
22 21 18 22 9 3 3 2 1 3 3 2 1 3 1 1 2 4 6 6 2 2 3 4 6 3 3 2 3 3 4 6 9 8 6 6 6 11 11 11 8 8 6 6 4 8 4 2 3 3 3 2 2 2
14 6 13 6 3 4 3 2 2 1 2 3 2 2 1 0 1 3 4 4 3 3 4 5 3 2 2 0 0 4 8 10 9 7 11 9 7 8 7 6 7 6 4 5 4 4 7 3 3 3 3 1 2 2
3 9 3 3 3 2 2 1 3 1 2 2 2 2 2 2 2 3 4 3 4 7 4 3 2 3 2 2 3 4 7 7 6 8 12 16 8 8 8 7 7 6 5 6 5 5 4 3 3 3 3 2 2 1
10 4 3 3 4 2 3 1 2 3 3 3 1 2 2 2 2 4 3 4 5 4 3 3 3 1 3 1 3 4 5 9 8 9 10 8 8 8 8 7 7 7 5 3 4 4 4 8 5 4 3 1 1 1
4 3 4 3 3 4 3 2 2 3 2 3 4 3 3 2 1 2 4 3 3 3 5 7 4 3 2 2 3 5 4 5 6 5 7 10 9 7 7 7 5 4 4 5 4 4 4 3 7 3 3 3 1 2
5 3 4 3 2 5 4 4 4 3 4 5 4 2 3 2 3 4 4 3 2 4 6 7 7 8 7 5 3 4 3 8 9 9 4 7 9 7 6 5 4 4 5 7 5 5 4 3 3 3 3 3 3 3
4 3 5 5 2 4 5 5 6 6 4 4 4 2 2 3 4 7 3 2 3 3 2 3 6 6 5 5 7 6 6 3 8 7 4 9 10 12 11 10 6 2 3 4 6 6 6 5 5 6 4 5 7 4
7 4 1 1 3 3 2 1 2 3 5 6 4 5 4 5 7 1 2 3 3 4 5 6 6 4 3 3 4 5 5 3 2 4 7 5 4 6 10 11 9 4 9 8 7 8 8 7 5 5 4 3 3 4
2 3 6 5 2 1 4 3 5 6 4 2 6 5 6 3 2 4 3 4 6 6 6 5 4 5 2 5 6 8 6 6 8 10 9 7 5 3 4 4 5 17 9 9 7 6 6 6 6 6 4 4 3 3
2 1 3 3 3 3 2 3 2 2 2 2 2 2 2 3 3 4 4 8 7 5 5 3 3 3 5 5 5 4 7 8 9 10 10 7 3 1 1 3 5 5 6 6 15 11 9 7 6 6 6 4 3 3
1 2 2 2 4 3 1 1 1 1 1 1 1 2 2 2 1 3 5 5 6 6 5 4 3 1 2 4 5 6 5 4 4 3 8 9 8 6 7 6 6 5 5 6 5 4 13 8 6 5 3 2 2 2
1 1 3 3 2 1 1 0 1 1 0 1 2 2 2 3 2 3 9 8 7 7 6 6 6 7 5 4 3 6 4 2 3 5 4 5 6 7 8 7 5 5 5 5 5 4 3 3 3 4 6 5 5 5
2 2 2 2 2 1 1 1 1 1 1 1 2 2 2 2 3 5 6 8 7 7 11 9 7 6 7 5 4 4 6 5 3 4 5 5 5 4 5 5 5 6 6 5 5 4 3 5 5 5 6 6 6 5
1 1 2 3 2 2 2 2 2 3 2 2 3 2 3 3 4 3 3 4 3 5 5 4 4 4 5 5 5 5 8 2 5 8 11 12 13 11 6 4 5 5 7 5 5 4 5 5 4 5 5 5 5 5
Wind_Direction
343 347 341 356 1 223 206 206 206 206 203 204 199 197 192 187 184 175 126 179 130 189 204 265 196 143 96 206 167 159 89 304 132 191 193 215 187 220 340 246 189 184 167 210 218 278 287 153 305 142 233 323 317 330
329 325 332 330 357 5 248 211 209 209 203 200 198 196 193 187 182 181 129 165 89 113 99 1 28 20 44 46 122 175 202 150 179 141 281 48 223 138 198 279 65 280 196 205 187 235 152 206 210 274 325 294 313 333
314 311 306 310 325 330 324 7 263 216 206 201 197 194 191 188 184 182 132 147 93 113 288 134 201 155 49 24 347 134 236 139 77 149 131 103 239 111 211 233 244 247 156 225 19 310 260 286 287 351 344 311 314 300
291 295 296 297 293 304 305 339 342 277 219 207 201 195 188 186 184 175 160 176 116 126 202 158 156 124 7 313 51 42 109 60 99 59 121 169 215 128 243 234 212 198 140 204 256 279 282 270 161 349 321 326 322 322
277 282 289 293 293 289 294 294 324 320 301 219 209 201 189 181 177 175 142 189 182 145 170 123 17 137 123 133 103 107 126 129 145 124 155 218 220 97 242 17 239 183 195 179 224 194 153 236 18 338 320 305 310 302
276 268 277 287 289 292 286 285 286 301 338 289 216 202 189 171 152 114 276 220 186 145 118 191 71 170 112 109 123 134 124 79 146 160 199 186 87 145 262 247 239 202 205 179 193 68 20 294 306 314 309 314 300 313
270 271 266 273 283 288 291 287 281 286 293 349 230 203 183 161 151 161 193 304 164 126 109 249 207 145 138 135 145 115 269 200 167 185 210 178 204 185 243 245 250 198 202 207 164 109 292 188 238 327 292 299 313 298
266 269 265 263 273 283 291 297 299 291 290 305 287 187 161 142 98 3 22 119 57 90 98 226 132 165 194 151 146 199 149 214 216 214 99 178 116 225 253 237 204 161 87 230 210 183 168 138 356 310 320 326 320 316
257 260 265 263 264 273 290 296 301 310 298 32 105 105 82 55 152 105 110 68 15 95 199 170 165 180 156 111 88 201 211 195 42 248 235 157 192 225 230 206 199 180 186 224 166 159 83 181 288 291 303 312 304 307
248 253 258 258 256 262 276 289 296 296 124 120 88 107 164 171 121 105 60 90 30 263 274 232 75 140 162 133 159 146 194 216 206 232 116 229 252 257 242 208 188 175 166 140 109 291 226 261 223 248 244 254 241 273
243 246 251 252 250 255 260 276 285 146 135 43 93 74 61 134 125 131 135 167 188 226 187 167 135 140 229 149 150 207 185 167 212 221 193 247 261 239 198 192 171 162 164 175 140 135 134 143 171 200 278 275 292 289
238 242 246 250 244 246 252 263 229 157 123 119 104 94 126 226 256 159 176 168 198 213 158 147 148 117 144 152 122 178 169 130 238 139 182 260 251 184 146 169 158 153 160 165 147 156 170 188 201 199 238 263 269 271
231 234 239 243 245 238 241 252 221 130 113 87 90 124 159 162 204 215 194 203 187 162 166 161 140 139 137 158 108 150 170 206 118 201 232 234 208 155 157 146 113 105 120 133 143 146 150 197 194 192 256 254 270 279
225 228 234 237 239 233 233 244 172 157 107 148 152 165 202 183 223 201 219 207 176 149 144 140 121 144 137 147 146 152 145 123 216 236 234 236 196 162 149 131 134 166 166 167 176 178 183 208 223 226 224 242 262 287
221 224 229 233 232 231 230 248 178 171 141 174 186 203 197 213 228 157 121 89 14 144 145 113 99 133 137 133 178 110 158 229 220 231 223 188 153 149 155 157 149 153 163 173 166 169 187 208 211 242 261 244 269 289
217 223 223 228 230 226 228 233 185 85 203 192 211 186 174 169 181 200 190 133 147 155 116 95 143 166 178 153 156 204 173 221 222 216 183 132 146 158 162 162 155 154 164 165 167 170 174 176 192 207 355 299 270 272
212 215 212 220 223 222 211 117 147 206 223 185 205 190 209 303 204 161 153 171 157 157 196 162 176 185 116 185 208 189 213 213 179 174 152 159 161 161 155 149 146 154 153 158 158 161 157 158 137 171 247 273 339 293
202 187 196 201 200 170 41 146 202 191 197 168 181 191 186 165 143 137 154 160 165 199 160 201 127 191 198 199 215 205 208 119 227 159 146 147 149 149 150 145 144 153 153 160 157 146 138 150 167 223 184 208 295 293
187 174 195 196 131 132 152 190 231 189 203 112 90 345 331 201 74 117 172 175 267 51 131 180 207 210 210 216 210 149 169 183 164 134 115 131 139 140 136 133 138 143 152 156 149 149 163 178 165 151 143 118 251 277
192 190 198 152 111 118 138 121 279 125 172 180 107 165 234 294 138 132 163 167 166 166 231 223 220 222 216 213 172 147 161 150 137 131 125 123 129 128 141 147 155 150 144 148 141 144 140 167 191 168 146 201 229 261
171 98 107 75 65 62 39 123 83 119 140 150 136 143 135 191 178 145 167 155 212 220 238 234 217 235 90 309 283 132 158 160 175 170 161 152 156 139 135 125 131 141 153 166 154 178 180 188 184 144 130 187 231 249
104 161 98 68 90 88 81 305 125 148 106 146 130 147 157 167 154 157 123 200 234 244 220 200 204 171 186 218 206 184 168 143 121 128 134 132 145 149 155 150 147 163 167 166 166 172 177 164 142 131 159 201 233 235
131 91 89 111 102 87 132 247 131 161 129 170 91 147 187 186 143 124 217 227 238 209 192 200 174 94 139 97 145 130 145 147 140 147 153 144 140 142 141 151 155 152 157 175 151 158 161 169 173 165 176 143 123 279
82 83 118 134 105 130 139 157 102 112 109 183 174 203 194 140 114 198 249 247 227 147 189 186 141 106 69 155 205 178 165 134 119 116 138 136 141 151 155 151 148 137 152 147 146 149 143 133 173 153 151 149 179 195
111 164 140 138 132 122 128 143 168 162 171 192 148 185 187 175 196 221 245 268 218 205 204 189 191 196 183 188 165 179 179 159 153 149 146 147 129 119 116 115 127 139 134 141 156 156 164 159 145 155 168 162 189 210
184 149 164 159 159 147 169 149 181 176 142 161 195 109 150 183 208 238 214 354 3 354 308 221 215 219 216 183 169 175 180 150 140 143 158 158 158 156 157 155 153 188 168 157 148 161 166 165 170 171 179 224 230 183
164 189 153 10 109 111 96 77 97 146 176 179 167 170 170 203 232 236 48 39 341 355 317 305 308 284 200 108 90 97 121 110 120 140 129 127 121 154 160 161 172 183 165 164 164 161 168 174 178 171 183 207 196 189
126 168 160 173 137 143 145 165 180 198 188 148 136 186 199 230 333 349 357 356 325 311 295 291 314 314 119 121 131 129 110 105 90 96 94 63 43 50 97 101 116 152 152 161 157 145 157 165 169 165 164 190 214 207
117 172 108 124 144 178 166 190 194 76 1 180 192 168 108 61 2 335 317 325 318 307 318 341 6 1 63 79 88 106 146 145 136 138 148 158 149 218 103 111 123 133 142 146 164 158 156 156 163 164 179 185 195 168
220 324 105 125 156 167 98 4 61 7 15 32 42 115 99 91 39 334 342 347 358 349 331 319 317 360 87 113 120 87 38 31 3 164 171 181 184 140 155 152 145 144 132 132 132 136 179 171 179 161 128 132 135 136
314 172 83 67 93 69 65 12 245 241 17 56 359 50 94 130 154 32 13 354 355 5 18 16 26 18 48 75 100 128 113 42 41 54 74 103 122 143 157 158 152 142 135 134 140 144 141 125 130 143 166 180 199 188
4 49 131 121 118 120 233 245 159 117 95 78 41 39 134 128 58 17 5 1 9 23 20 15 11 9 351 356 23 16 45 124 92 70 84 98 96 108 121 125 129 133 129 134 144 143 129 150 157 177 186 195 202 206
118 88 92 119 127 187 172 220 167 118 73 76 54 35 38 42 73 9 357 17 11 358 356 345 335 345 358 358 7 29 47 48 151 116 104 114 130 132 116 113 114 116 129 135 143 140 152 147 165 176 180 193 203 204